Change the Weather History Date:

Sunday, October 13, 2013

  Actual Average (KFSD) Record (KFSD)
Temperature  
Mean Temperature 47 °F 49 °F  
Max Temperature 66 °F 61 °F 88 °F (1958)
Min Temperature 28 °F 37 °F 13 °F (1909)
Degree Days  
Heating Degree Days 18 16  
Month to date heating degree days 177  
Since 1 July heating degree days 381  
Cooling Degree Days 0 0  
Month to date cooling degree days 0  
Year to date cooling degree days 685  
Moisture  
Dew Point 30 °F    
Average Humidity 57    
Maximum Humidity 93    
Minimum Humidity 24    
Precipitation  
Precipitation 0.00 in 0.08 in 1.06 in (1943)
Month to date precipitation 1.09  
Year to date precipitation 23.25  
Snow  
Snow 0.00 in 0.00 in 0.40 in (1997)
Month to date snowfall 0.2  
Since 1 July snowfall 0.2  
Since 1 September snowfall 0.2  
Snow Depth -    
Sea Level Pressure  
Sea Level Pressure 30.35 in    
Wind  
Wind Speed 2 mph (SE)    
Max Wind Speed 10 mph    
Max Gust Speed -    
Visibility 10 miles    
Events      
T = Trace of Precipitation, MM = Missing Value Source: NWS Daily Summary

Daily Weather History Graph

Daily Weather History Graph

Search for Another Location

Airport or City:

Trip Planner

Search our weather history database for the weather conditions in past years. The results will help you decide how hot, cold, wet, or windy it might be!

Date:

Astronomy

Oct. 13, 2013 Rise Set
Actual Time 7:36 AM CDT 6:44 PM CDT
Civil Twilight 7:08 AM CDT 7:13 PM CDT
Nautical Twilight 6:34 AM CDT 7:46 PM CDT
Astronomical Twilight 6:01 AM CDT 8:19 PM CDT
Moon 3:45 PM CDT (10/13) 1:38 AM CDT (10/13)
Length of Visible Light 12h 05m
Length of Day
11h 07m
Waxing Gibbous, 69% of the Moon is Illuminated
Oct 13
Waxing Gibbous
Oct 18
Full
Oct 26
Last Quarter
Nov 3
New
Nov 9
First Quarter

Hourly Weather History & Observations

Time (CDT) Temp. Dew Point Humidity Pressure Visibility Wind Dir Wind Speed Gust Speed Precip Events Conditions
12:12 AM 35.6 °F 32.0 °F 87% 30.27 in 10.0 mi Calm Calm - N/A   Clear
12:33 AM 33.8 °F 30.2 °F 87% 30.27 in 10.0 mi Calm Calm - N/A   Clear
12:52 AM 35.6 °F 28.4 °F 75% 30.27 in 10.0 mi Calm Calm - N/A   Clear
1:13 AM 32.0 °F 28.4 °F 87% 30.29 in 10.0 mi Calm Calm - N/A   Clear
1:33 AM 32.0 °F 26.6 °F 80% 30.31 in 10.0 mi Calm Calm - N/A   Clear
1:52 AM 32.0 °F 28.4 °F 87% 30.31 in 10.0 mi Calm Calm - N/A   Clear
2:13 AM 32.0 °F 28.4 °F 87% 30.32 in 10.0 mi Calm Calm - N/A   Clear
2:33 AM 32.0 °F 30.2 °F 93% 30.33 in 10.0 mi Calm Calm - N/A   Clear
2:53 AM 32.0 °F 26.6 °F 80% 30.33 in 10.0 mi Calm Calm - N/A   Clear
3:13 AM 32.0 °F 28.4 °F 87% 30.33 in 10.0 mi Calm Calm - N/A   Clear
3:33 AM 30.2 °F 28.4 °F 93% 30.33 in 10.0 mi Calm Calm - N/A   Clear
3:53 AM 32.0 °F 28.4 °F 87% 30.33 in 10.0 mi Calm Calm - N/A   Clear
4:13 AM 30.2 °F 26.6 °F 86% 30.33 in 10.0 mi Calm Calm - N/A   Clear
4:33 AM 30.2 °F 26.6 °F 86% 30.34 in 10.0 mi Calm Calm - N/A   Clear
4:53 AM 30.2 °F 26.6 °F 86% 30.35 in 10.0 mi Calm Calm - N/A   Clear
5:13 AM 30.2 °F 26.6 °F 86% 30.35 in 10.0 mi Calm Calm - N/A   Clear
5:33 AM 30.2 °F 28.4 °F 93% 30.35 in 10.0 mi Calm Calm - N/A   Clear
5:53 AM 30.2 °F 28.4 °F 93% 30.36 in 10.0 mi Calm Calm - N/A   Clear
6:13 AM 30.2 °F 26.6 °F 86% 30.36 in 10.0 mi Calm Calm - N/A   Clear
6:33 AM 30.2 °F 28.4 °F 93% 30.37 in 10.0 mi Calm Calm - N/A   Clear
6:53 AM 30.2 °F 26.6 °F 86% 30.38 in 10.0 mi Calm Calm - N/A   Clear
7:13 AM 30.2 °F 26.6 °F 86% 30.38 in 10.0 mi Calm Calm - N/A   Clear
7:32 AM 28.4 °F 26.6 °F 93% 30.39 in 10.0 mi Calm Calm - N/A   Clear
7:53 AM 30.2 °F 26.6 °F 86% 30.39 in 10.0 mi Calm Calm - N/A   Clear
8:12 AM 32.0 °F 28.4 °F 87% 30.40 in 10.0 mi Calm Calm - N/A   Clear
8:33 AM 32.0 °F 30.2 °F 93% 30.40 in 10.0 mi Calm Calm - N/A   Clear
8:53 AM 35.6 °F 32.0 °F 87% 30.41 in 10.0 mi Calm Calm - N/A   Clear
9:12 AM 37.4 °F 32.0 °F 81% 30.41 in 10.0 mi Calm Calm - N/A   Clear
9:33 AM 41.0 °F 32.0 °F 70% 30.41 in 10.0 mi Calm Calm - N/A   Clear
9:53 AM 42.8 °F 32.0 °F 66% 30.41 in 10.0 mi Calm Calm - N/A   Clear
10:12 AM 46.4 °F 33.8 °F 62% 30.42 in 10.0 mi Calm Calm - N/A   Clear
10:33 AM 51.8 °F 32.0 °F 47% 30.42 in 10.0 mi ESE 4.6 mph - N/A   Clear
10:53 AM 53.6 °F 32.0 °F 44% 30.44 in 10.0 mi Calm Calm - N/A   Clear
11:12 AM 55.4 °F 30.2 °F 38% 30.43 in 10.0 mi South 5.8 mph - N/A   Clear
11:33 AM 59.0 °F 28.4 °F 31% 30.42 in 10.0 mi South 6.9 mph - N/A   Clear
11:52 AM 59.0 °F 28.4 °F 31% 30.41 in 10.0 mi South 6.9 mph - N/A   Clear
12:13 PM 60.8 °F 28.4 °F 29% 30.41 in 10.0 mi South 6.9 mph - N/A   Clear
12:33 PM 60.8 °F 28.4 °F 29% 30.40 in 10.0 mi SE 4.6 mph - N/A   Clear
12:52 PM 60.8 °F 28.4 °F 29% 30.40 in 10.0 mi South 4.6 mph - N/A   Clear
1:13 PM 62.6 °F 28.4 °F 27% 30.39 in 10.0 mi East 3.5 mph - N/A   Clear
1:33 PM 62.6 °F 28.4 °F 27% 30.38 in 10.0 mi SE 9.2 mph - N/A   Clear
1:52 PM 64.4 °F 28.4 °F 26% 30.37 in 10.0 mi SE 8.1 mph - N/A   Clear
2:13 PM 64.4 °F 28.4 °F 26% 30.36 in 10.0 mi SSE 4.6 mph - N/A   Clear
2:33 PM 64.4 °F 28.4 °F 26% 30.36 in 10.0 mi SSE 4.6 mph - N/A   Clear
2:52 PM 64.4 °F 28.4 °F 26% 30.35 in 10.0 mi SSE 9.2 mph - N/A   Clear
3:13 PM 64.4 °F 28.4 °F 26% 30.35 in 10.0 mi SSE 6.9 mph - N/A   Clear
3:33 PM 66.2 °F 28.4 °F 24% 30.35 in 10.0 mi South 6.9 mph - N/A   Clear
3:52 PM 64.4 °F 28.4 °F 26% 30.34 in 10.0 mi SE 9.2 mph - N/A   Clear
4:13 PM 64.4 °F 28.4 °F 26% 30.34 in 10.0 mi SSE 8.1 mph - N/A   Clear
4:33 PM 64.4 °F 28.4 °F 26% 30.33 in 10.0 mi SE 9.2 mph - N/A   Clear
4:52 PM 64.4 °F 28.4 °F 26% 30.33 in 10.0 mi South 8.1 mph - N/A   Clear
5:13 PM 64.4 °F 28.4 °F 26% 30.33 in 10.0 mi SSE 10.4 mph - N/A   Clear
5:33 PM 64.4 °F 30.2 °F 28% 30.33 in 10.0 mi SE 9.2 mph - N/A   Clear
5:53 PM 62.6 °F 30.2 °F 30% 30.32 in 10.0 mi SE 6.9 mph - N/A   Clear
6:12 PM 60.8 °F 30.2 °F 31% 30.31 in 10.0 mi SE 6.9 mph - N/A   Clear
6:33 PM 59.0 °F 30.2 °F 34% 30.31 in 10.0 mi SE 6.9 mph - N/A   Clear
6:53 PM 59.0 °F 32.0 °F 36% 30.32 in 10.0 mi SE 5.8 mph - N/A   Clear
7:12 PM 55.4 °F 32.0 °F 41% 30.32 in 10.0 mi SE 5.8 mph - N/A   Clear
7:33 PM 55.4 °F 32.0 °F 41% 30.32 in 10.0 mi ESE 5.8 mph - N/A   Clear
7:53 PM 53.6 °F 32.0 °F 44% 30.32 in 10.0 mi ESE 6.9 mph - N/A   Clear
8:12 PM 53.6 °F 32.0 °F 44% 30.32 in 10.0 mi ESE 6.9 mph - N/A   Clear
8:33 PM 53.6 °F 32.0 °F 44% 30.32 in 10.0 mi ESE 6.9 mph - N/A   Clear
8:53 PM 51.8 °F 32.0 °F 47% 30.32 in 10.0 mi ESE 6.9 mph - N/A   Clear
9:13 PM 51.8 °F 32.0 °F 47% 30.32 in 10.0 mi ESE 8.1 mph - N/A   Clear
9:33 PM 51.8 °F 32.0 °F 47% 30.32 in 10.0 mi ESE 8.1 mph - N/A   Clear
9:53 PM 51.8 °F 32.0 °F 47% 30.32 in 10.0 mi ESE 8.1 mph - N/A   Clear
10:13 PM 51.8 °F 32.0 °F 47% 30.33 in 10.0 mi ESE 8.1 mph - N/A   Clear
10:33 PM 50.0 °F 32.0 °F 50% 30.33 in 10.0 mi SE 8.1 mph - N/A   Clear
10:53 PM 50.0 °F 32.0 °F 50% 30.33 in 10.0 mi SE 4.6 mph - N/A   Clear
11:13 PM 50.0 °F 32.0 °F 50% 30.33 in 10.0 mi SE 4.6 mph - N/A   Clear
11:33 PM 48.2 °F 32.0 °F 54% 30.33 in 10.0 mi SSE 3.5 mph - N/A   Clear
11:53 PM 48.2 °F 32.0 °F 54% 30.33 in 10.0 mi Calm Calm - N/A   Scattered Clouds